612  
ASUS44 KLCH 230710  
RWRLCH  
REGIONAL WEATHER ROUNDUP  
NATIONAL WEATHER SERVICE LAKE CHARLES LA  
100 AM CST WED JAN 23 2019  
 
NOTE: "FAIR" INDICATES FEW OR NO CLOUDS BELOW 12,000 FEET WITH NO  
SIGNIFICANT WEATHER AND/OR S TO VISIBILITY
.  
 
ACROSS SOUTHEAST TEXAS  
 
CITY SKY/WX TMP DP RH WIND PRES REMARKS
 
BEAUMONT MOCLDY 68 63 84 S17G28 29.89F  
BEAUMONT CITY NOT AVBL  
ORANGE PTSUNNY 64 64 100 S10 29.92S  
JASPER CLOUDY 65 63 93 S9G18 29.89F  

 
 
ACROSS CENTRAL LOUISIANA  
 
CITY SKY/WX TMP DP RH WIND PRES REMARKS
 
LEESVILLE CLOUDY 64 62 92 S16G25 29.88S  
FULLERTON CLOUDY 65 62 90 VRB6 29.87F  
ALEXANDRIA INT CLOUDY 63 59 87 SE15 29.89F  
ESLER FIELD CLOUDY 64 59 83 S13 29.91F  
DERIDDER LGT RAIN 65 64 96 SE7G17 29.91F  
OAKDALE CLOUDY 67 60 77 SE10G16 29.91F  
OPELOUSAS CLOUDY 65 58 77 SE20 29.95F  

 
 
ACROSS SOUTHWEST AND SOUTH CENTRAL LOUISIANA  
 
CITY SKY/WX TMP DP RH WIND PRES REMARKS
 
DEQUINCY CLOUDY 64 61 91 SE12 29.91F  
SULPHUR HVY RAIN 65 64 95 S17G23 29.93R  
LAKE CHARLES CLOUDY 67 64 90 S15G24 29.91F  
CHENNAULT INT CLOUDY 66 63 89 SE16G24 29.92S  
CAMERON PHI PTSUNNY 63 63 100 S8G16 29.91R FOG  
GRAND CHENIER CLOUDY N/A N/A N/A SE20 29.93S  
JENNINGS CLOUDY 67 61 81 SE14G26 29.91F  
LAFAYETTE CLOUDY 67 61 81 SE10G18 29.97F  
NEW IBERIA CLOUDY 65 59 81 SE10 29.99F  
ABBEVILLE CLOUDY 64 63 94 SE12 29.98S  
PATTERSON CLOUDY 64 62 93 SE7 30.01F  
SALT POINT N/A N/A N/A N/A SE7 29.99F  

 
 
SELECTED SITES ACROSS THE REGION  
 
CITY SKY/WX TMP DP RH WIND PRES REMARKS
 
HOUSTON BUSH HVY RAIN 50 48 93 NW23G38 29.98R FOG  
HOUSTON HOBBY RAIN 53 49 86 NW31G47 29.96R FOG  
GALVESTON RAIN 65 65 100 S10 29.92S  
COLLEGE STAT RAIN 41 39 93 N17 30.03S  
CONROE HVY RAIN 46 46 100 NW20G31 30.02R FOG  
HUNTSVILLE HVY RAIN 41 41 100 N13G20 30.02F FOG  
LUFKIN HVY RAIN 44 44 100 NW20G31 30.00R FOG  
SHREVEPORT HVY RAIN 47 46 97 NW28G33 29.90R FOG  
MONROE LGT RAIN 62 57 83 S12G21 29.90F  
NATCHEZ MS CLOUDY 64 57 78 SE21G26 29.95F  
BATON ROUGE CLOUDY 61 57 87 E6 30.01F  
N.O. INTL ARPT MOCLDY 63 60 90 NW3 30.03F  
SLIDELL CLOUDY 62 60 93 CALM 30.04F  

 
 
MARINE REPORTS  
 
STATION/POSITION TIME SKY/WX TEMP WIND PRES VSBY
 
AIR SEA DIR/SP/G  
(UTC) (F) (DEG/KT/KT) (MB) (MI)  
BUOY 30 S HIGH I 0650 62 58 140/ 6/ 8 1013.9R  
WVE H/P(F/S)= 6/ 9  
 
SEA RIM ST PARK 0700 61 150/ 7/ 8 1013.4F  
PORT ARTHUR 0642 62 55 150/ 6/ 9 1013.2F  
SABINE PASS N 0642 63 58 160/ 6/ 8 1014.7F  
TEXAS POINT NOT AVBL  
CALCASIEU PASS 0642 61 57 160/ 10/ 15 1012.1R  
LK CHARLES BEACH 0642 66 55 1012.2F  
MARSH ISLAND NOT AVBL  
FRESH WATER LOCK 0642 62 56 100/ 10/ 15 1014.8F  
AMERADA PASS 0642 62 51 100/ 8/ 10 1016.2F  

 
 
 
CLICK HERE TO GO TO PREVIOUS BULLETINS.

The Nexlab LA Page
The Nexlab TX Page Main Text Page